| time (UTC) | temp F | wind direction | speed knots | gust knots | rain 1hr in | rain 24hr in | rain mn in | humidity % | barometer mb |
| 20260506073054 | 57 | 360 | 0.0 | 0.0 | 0.00 | 0.00 | 0.00 | 84 | 1007.9 |
| 20260506071553 | 57 | 328 | 0.0 | 0.0 | 0.00 | 0.00 | 0.00 | 85 | 1008.2 |
| 20260506061547 | 58 | 360 | 0.0 | 0.0 | 0.00 | 0.00 | 0.00 | 87 | 1008.7 |
| 20260506044535 | 60 | 332 | 0.0 | 1.7 | 0.00 | 0.00 | 0.00 | 77 | 1009.5 |
| 20260506043029 | 62 | 151 | 0.0 | 0.0 | 0.00 | 0.00 | 0.00 | 73 | 1009.3 |
| 20260506041526 | 63 | 151 | 0.0 | 1.7 | 0.00 | 0.00 | 0.00 | 69 | 1009.5 |
| 20260506040023 | 64 | 151 | 0.0 | 1.7 | 0.00 | 0.00 | 0.00 | 66 | 1009.7 |
| 20260506034522 | 65 | 149 | 0.0 | 6.1 | 0.00 | 0.00 | 0.00 | 65 | 1009.7 |
| 20260506033020 | 66 | 174 | 0.0 | 5.2 | 0.00 | 0.00 | 0.00 | 64 | 1009.4 |
| 20260506031520 | 66 | 236 | 1.7 | 4.3 | 0.00 | 0.00 | 0.00 | 64 | 1009.3 |
| 20260506030029 | 67 | 144 | 0.9 | 3.5 | 0.00 | 0.00 | 0.00 | 62 | 1009.4 |
| 20260506024534 | 68 | 143 | 0.0 | 3.5 | 0.00 | 0.00 | 0.00 | 60 | 1009.5 |
| 20260506023019 | 68 | 163 | 0.9 | 6.1 | 0.00 | 0.00 | 0.00 | 59 | 1009.6 |
| 20260506021518 | 68 | 200 | 0.9 | 5.2 | 0.00 | 0.00 | 0.00 | 59 | 1009.3 |
| 20260506020017 | 68 | 163 | 0.9 | 4.3 | 0.00 | 0.00 | 0.00 | 59 | 1009.3 |
| 20260506014519 | 69 | 105 | 0.9 | 5.2 | 0.00 | 0.00 | 0.00 | 58 | 1009.5 |
| 20260506013016 | 68 | 178 | 0.9 | 4.3 | 0.00 | 0.00 | 0.00 | 58 | 1009.4 |
| 20260506011516 | 68 | 129 | 0.0 | 3.5 | 0.00 | 0.00 | 0.00 | 59 | 1009.3 |
| 20260506010017 | 69 | 109 | 0.0 | 2.6 | 0.00 | 0.00 | 0.00 | 58 | 1009.0 |
| 20260506004515 | 70 | 190 | 0.0 | 5.2 | 0.00 | 0.00 | 0.00 | 55 | 1008.8 |
| 20260506003016 | 71 | 115 | 0.9 | 6.1 | 0.00 | 0.00 | 0.00 | 53 | 1008.8 |
| 20260506001517 | 71 | 169 | 2.6 | 5.2 | 0.00 | 0.00 | 0.00 | 52 | 1008.8 |
| 20260506000014 | 71 | 223 | 3.5 | 7.0 | 0.00 | 0.00 | 0.00 | 54 | 1008.8 |
| 20260505234521 | 71 | 188 | 0.9 | 4.3 | 0.00 | 0.00 | 0.00 | 52 | 1008.6 |
| 20260505233012 | 72 | 155 | 0.0 | 4.3 | 0.00 | 0.00 | 0.00 | 52 | 1008.5 |
| 20260505231512 | 72 | 182 | 0.0 | 3.5 | 0.00 | 0.00 | 0.00 | 51 | 1008.4 |
| 20260505230023 | 72 | 205 | 1.7 | 8.7 | 0.00 | 0.00 | 0.00 | 49 | 1008.4 |
| 20260505224511 | 73 | 165 | 1.7 | 5.2 | 0.00 | 0.00 | 0.00 | 50 | 1008.3 |
| 20260505223010 | 73 | 185 | 1.7 | 8.7 | 0.00 | 0.00 | 0.00 | 47 | 1008.1 |
| 20260505221510 | 73 | 281 | 1.7 | 7.0 | 0.00 | 0.00 | 0.00 | 49 | 1007.9 |
| 20260505220009 | 73 | 180 | 1.7 | 8.7 | 0.00 | 0.00 | 0.00 | 48 | 1007.9 |
| 20260505214508 | 73 | 137 | 7.8 | 14.8 | 0.00 | 0.00 | 0.00 | 49 | 1007.7 |
| 20260505213010 | 73 | 186 | 5.2 | 11.3 | 0.00 | 0.00 | 0.00 | 50 | 1007.5 |
| 20260505211510 | 74 | 122 | 5.2 | 12.2 | 0.00 | 0.00 | 0.00 | 51 | 1007.3 |
| 20260505210008 | 74 | 200 | 6.1 | 13.0 | 0.00 | 0.00 | 0.00 | 50 | 1007.5 |
| 20260505204504 | 75 | 142 | 5.2 | 12.2 | 0.00 | 0.00 | 0.00 | 52 | 1007.3 |
| 20260505203004 | 76 | 193 | 6.1 | 15.6 | 0.00 | 0.00 | 0.00 | 53 | 1007.2 |
| 20260505201507 | 73 | 163 | 4.3 | 13.9 | 0.00 | 0.00 | 0.00 | 53 | 1007.7 |
| 20260505200003 | 73 | 188 | 4.3 | 13.0 | 0.00 | 0.00 | 0.00 | 52 | 1007.3 |
| 20260505194502 | 73 | 179 | 7.0 | 11.3 | 0.00 | 0.00 | 0.00 | 52 | 1007.2 |
| 20260505193001 | 74 | 125 | 1.7 | 13.9 | 0.00 | 0.00 | 0.00 | 51 | 1007.1 |
| 20260505191625 | 75 | 175 | 7.8 | 16.5 | 0.00 | 0.00 | 0.00 | 51 | 1007.1 |
| 20260505190058 | 76 | 127 | 2.6 | 13.0 | 0.00 | 0.00 | 0.00 | 55 | 1007.0 |
| 20260505184555 | 75 | 192 | 8.7 | 16.5 | 0.00 | 0.00 | 0.00 | 52 | 1007.7 |
| 20260505183054 | 76 | 157 | 2.6 | 12.2 | 0.00 | 0.00 | 0.00 | 54 | 1007.8 |
| 20260505181553 | 75 | 217 | 7.0 | 13.0 | 0.00 | 0.00 | 0.00 | 54 | 1007.9 |
| 20260505174554 | 75 | 150 | 5.2 | 13.0 | 0.00 | 0.00 | 0.00 | 48 | 1008.4 |
| 20260505173048 | 75 | 154 | 3.5 | 12.2 | 0.00 | 0.00 | 0.00 | 48 | 1008.5 |
| 20260505171549 | 76 | 214 | 4.3 | 11.3 | 0.00 | 0.00 | 0.00 | 49 | 1008.3 |
| 20260505170043 | 75 | 175 | 4.3 | 13.0 | 0.00 | 0.00 | 0.00 | 52 | 1008.5 |
| 20260505164542 | 74 | 144 | 5.2 | 10.4 | 0.00 | 0.00 | 0.00 | 55 | 1008.7 |
| 20260505163038 | 74 | 176 | 3.5 | 14.8 | 0.00 | 0.00 | 0.00 | 53 | 1009.1 |
| 20260505161536 | 74 | 142 | 4.3 | 13.0 | 0.00 | 0.00 | 0.00 | 57 | 1009.4 |
| 20260505153026 | 73 | 135 | 4.3 | 13.9 | 0.00 | 0.00 | 0.00 | 55 | 1009.7 |
| 20260505151524 | 73 | 173 | 7.0 | 14.8 | 0.00 | 0.00 | 0.00 | 55 | 1009.6 |
| 20260505124508 | 67 | 200 | 3.5 | 10.4 | 0.00 | 0.00 | 0.00 | 60 | 1010.2 |
| 20260505123103 | 67 | 176 | 1.7 | 8.7 | 0.00 | 0.00 | 0.00 | 60 | 1010.1 |
| 20260505121601 | 67 | 194 | 2.6 | 5.2 | 0.00 | 0.00 | 0.00 | 64 | 1010.4 |
| 20260505120058 | 65 | 217 | 0.9 | 9.6 | 0.00 | 0.00 | 0.00 | 66 | 1010.1 |
| 20260505114559 | 64 | 194 | 1.7 | 7.8 | 0.00 | 0.00 | 0.00 | 66 | 1010.2 |
| 20260505113055 | 63 | 181 | 0.9 | 4.3 | 0.00 | 0.00 | 0.00 | 68 | 1010.5 |
| 20260505111549 | 63 | 177 | 0.0 | 2.6 | 0.00 | 0.00 | 0.00 | 67 | 1010.4 |
| 20260505101600 | 60 | 149 | 0.9 | 7.0 | 0.00 | 0.00 | 0.00 | 68 | 1009.6 |
| 20260505100059 | 61 | 173 | 1.7 | 6.1 | 0.00 | 0.00 | 0.00 | 68 | 1009.5 |
| 20260505094542 | 60 | 168 | 2.6 | 7.0 | 0.00 | 0.00 | 0.00 | 68 | 1009.3 |
| 20260505093042 | 60 | 185 | 2.6 | 6.1 | 0.00 | 0.00 | 0.00 | 68 | 1009.3 |
| 20260505091541 | 60 | 177 | 0.9 | 7.8 | 0.00 | 0.00 | 0.00 | 68 | 1009.2 |
| 20260505090041 | 60 | 138 | 1.7 | 6.1 | 0.00 | 0.00 | 0.00 | 68 | 1009.2 |
| 20260505084540 | 61 | 200 | 0.9 | 6.1 | 0.00 | 0.00 | 0.00 | 67 | 1009.2 |
| 20260505083038 | 61 | 157 | 0.9 | 4.3 | 0.00 | 0.00 | 0.00 | 69 | 1009.2 |
| 20260505081541 | 60 | 360 | 0.0 | 8.7 | 0.00 | 0.00 | 0.00 | 69 | 1009.2 |